Location: Caltech
(34.1382°N, 118.1253°W)
Time: 05:05:16
(UTC-07:00)

PANSAT - Visible Passes

Search period start: 01 October 2016 00:00
Search period end: 11 October 2016 00:00
Orbit: 478 x 485 km, 28.5° (Epoch: 30 September)

Date Brightness Start Highest point End Pass type
(mag) Time Alt. Az. Time Alt. Az. Time Alt. Az.
01 Oct 9.8 05:14:17 14° S 05:14:17 14° S 05:15:30 10° SSE visible
08 Oct 10.0 20:19:12 10° SSW 20:20:02 14° SSW 20:20:02 14° SSW visible
09 Oct 9.3 19:50:04 10° SSW 19:52:42 20° SSE 19:52:42 20° SSE visible
10 Oct 9.3 19:20:55 10° SSW 19:23:44 20° SSE 19:25:19 16° SE visible
